ONEWEB-0219 (48223 NORAD) Tracking and Keplerian Element Data

This shows tracking and keplerian element data for the satellite.

Feedback or suggestion? Click here.




ElementValue
Catalog48223
NameONEWEB-0219
Epoch Orbit182
Epoch Day136.91668981
Epoch Year2021
RAAN305.6724
Inclination87.4175
Eccentricity0.0011426
Argument of Perigee163.7654
Mean Anonmoly59.2467
Mean Motion15.37587309
Decay Rate-0.01299012
L11 48223U 21031P 21136.91668981 -.01299012 00000-0 -39012-1 0 9999
L22 48223 87.4175 305.6724 0011426 163.7654 59.2467 15.37587309 1828

Live tracking and technical data element details for ONEWEB-0219 (NORAD 48223). ONEWEB-0219 can be tracked NOW for your location showing map with azimuth and elevation plus other details from your city location.

Track the satellite on the map from your city or location and see movement details for azimuth, elevation, latitude, longitude, range, height, and movement on the map or in text.







IsCatalogInMostPopularTable: catalog: 48223, numindb: 6
Update: records affected: 1



GetName: 48223 ONEWEB-0219

Hit Count: updated at: Mon, 17 May 2021 16:43:38 GMT